Webcams

EDPO Webcam Blick Richtung Osten (local time)

Webcam-2

Info zum Bild:

  • Blick zum Kloster Mariahilf, Entfernung ca. 3km
  • Blick zur Kirche St. Johannes, Entfernung ca. 1km
  • Blick zu den beiden Windrädern, Entfernung ca. 6km

EDPO Webcam Blick Richtung Westen (local time)

Webcam-1

Info zum Bild:

  • Blick zum Tyrolsberg, Entfernung ca. 3,5km

Dillberg Webcam Blick Richtung Osten zu EDPO (local time)

Webcam-1

Info zum Bild:

  • Blick vom Dillberg Richtung Neumarkt, Höhe 555ft über EDPO

Dillberg Webcam Blick Richtung Westen zum Sender (local time)

Webcam-1

Info zum Bild:

  • Blick vom Dillberg Sender, Höhe bis Spitze 1322ft über EDPO
  • 600m Entfernung / Sichtweite von CAM zum Dillberg Sender

Wolfstein Webcam Blick Richtung Osten nach Neumarkt


Snapshot

Info zum Bild:

Nürnberger Fernsehturm (Rundum CAM)


METAR Informationen der nächstgelegenen Flughäfen


EDDN / Flughafen Nürnberg „Albrecht Dürer“

EDDN 171420Z 24014KT 9999 FEW025 06/01 Q1004 TEMPO 27015G25KT

ETIC / Fliegerhorst Grafenwöhr AAF

ETIC 171426Z AUTO 23009G17KT 9999 SCT015 OVC100 05/04 A2962 RMK AO2 SLPNO $

ETIH / Fliegerhorst Hohenfels AAF

ETIH 171425Z AUTO 29009G17KT 9999 FEW010 BKN015 BKN023 OVC028 05/05 A2968 RMK AO2 RAB04E22DZB22E25 CIG 015V026 BKN015 V SCT SLPNO $